Weather History for Charlevoix, MI

Change the Weather History Date:

Monday, October 25, 2010

  Actual Average Record
Temperature  
Mean Temperature 58 °F -  
Max Temperature 64 °F 55 °F 78 °F (2012)
Min Temperature 53 °F 45 °F 32 °F (2002)
Degree Days  
Heating Degree Days 6    
Growing Degree Days 8 (Base 50)    
Moisture  
Dew Point 56 °F    
Average Humidity 90    
Maximum Humidity 100    
Minimum Humidity 77    
Precipitation  
Precipitation 0.00 in - - ()
Sea Level Pressure  
Sea Level Pressure 29.54 in    
Wind  
Wind Speed 5 mph (South)    
Max Wind Speed 9 mph    
Max Gust Speed 21 mph    
Visibility 8 miles    
Events Rain    
Averages and records for this station are not official NWS values.
T = Trace of Precipitation, MM = Missing Value Source: NWS Daily Summary

Daily Weather History Graph

Daily Weather History Graph

Search for Another Location

Airport:

Trip Planner

Search our weather history database for the weather conditions in past years. The results will help you decide how hot, cold, wet, or windy it might be!

Date:

Astronomy

Oct. 25, 2010 Rise Set
Actual Time 8:10 AM EDT 6:39 PM EDT
Civil Twilight 7:40 AM EDT 7:09 PM EDT
Nautical Twilight 7:05 AM EDT 7:43 PM EDT
Astronomical Twilight 6:31 AM EDT 8:17 PM EDT
Moon 7:55 PM EDT (10/25) 11:03 AM EDT (10/25)
Length of Visible Light 11h 29m
Length of Day
10h 28m
Waning Gibbous, 93% of the Moon is Illuminated
Oct 25
Waning Gibbous
Oct 30
Last Quarter
Nov 6
New
Nov 13
First Quarter
Nov 21
Full

Hourly Weather History & Observations

Time (EDT) Temp. Dew Point Humidity Pressure Visibility Wind Dir Wind Speed Gust Speed Precip Events Conditions
12:15 AM 53.6 °F 53.6 °F 100% 29.61 in 4.0 mi ESE 3.5 mph - N/A   Mostly Cloudy
12:35 AM 53.6 °F 53.6 °F 100% 29.60 in 5.0 mi SE 4.6 mph - N/A   Overcast
12:55 AM 53.6 °F 53.6 °F 100% 29.61 in 7.0 mi SE 5.8 mph - N/A   Overcast
1:15 AM 53.6 °F 53.6 °F 100% 29.59 in 7.0 mi ESE 4.6 mph - N/A   Overcast
1:35 AM 55.4 °F 53.6 °F 94% 29.58 in 10.0 mi ESE 5.8 mph - N/A   Overcast
1:55 AM 55.4 °F 53.6 °F 94% 29.58 in 7.0 mi SE 4.6 mph - N/A   Overcast
2:15 AM 55.4 °F 53.6 °F 94% 29.57 in 10.0 mi SE 5.8 mph - N/A   Light Drizzle
2:35 AM 55.4 °F 53.6 °F 94% 29.57 in 10.0 mi SSE 4.6 mph - N/A   Overcast
3:15 AM 57.2 °F 55.4 °F 94% 29.57 in 10.0 mi South 6.9 mph - N/A   Overcast
3:35 AM 57.2 °F 55.4 °F 94% 29.56 in 10.0 mi South 5.8 mph - N/A   Overcast
3:55 AM 57.2 °F 55.4 °F 94% 29.55 in 10.0 mi SSE 4.6 mph - N/A   Overcast
4:15 AM 57.2 °F 55.4 °F 94% 29.54 in 10.0 mi SSE 4.6 mph - N/A   Overcast
4:35 AM 57.2 °F 55.4 °F 94% 29.54 in 10.0 mi SSE 4.6 mph - N/A   Overcast
4:55 AM 57.2 °F 55.4 °F 94% 29.53 in 10.0 mi South 4.6 mph - N/A Rain Light Rain
5:15 AM 57.2 °F 55.4 °F 94% 29.53 in 10.0 mi South 3.5 mph - N/A   Overcast
5:35 AM 57.2 °F 55.4 °F 94% 29.53 in 10.0 mi South 5.8 mph - N/A   Overcast
5:55 AM 59.0 °F 57.2 °F 94% 29.52 in 10.0 mi SSW 5.8 mph - N/A   Overcast
6:15 AM 59.0 °F 57.2 °F 94% 29.52 in 10.0 mi SSW 6.9 mph - N/A   Overcast
6:35 AM 59.0 °F 55.4 °F 88% 29.52 in 10.0 mi SSW 6.9 mph - N/A   Overcast
6:55 AM 59.0 °F 57.2 °F 94% 29.52 in 7.0 mi SSW 5.8 mph - N/A   Overcast
7:15 AM 57.2 °F 55.4 °F 94% 29.52 in 7.0 mi SSW 6.9 mph - N/A   Overcast
7:35 AM 57.2 °F 55.4 °F 94% 29.53 in 7.0 mi SSW 6.9 mph - N/A   Overcast
7:55 AM 57.2 °F 55.4 °F 94% 29.52 in 7.0 mi SSW 5.8 mph - N/A   Overcast
8:15 AM 57.2 °F 55.4 °F 94% 29.53 in 7.0 mi SSW 6.9 mph - N/A   Overcast
8:35 AM 57.2 °F 55.4 °F 94% 29.53 in 7.0 mi South 4.6 mph - N/A   Overcast
8:55 AM 57.2 °F 55.4 °F 94% 29.53 in 2.5 mi South 4.6 mph - N/A Rain Rain
9:15 AM 57.2 °F 55.4 °F 94% 29.52 in 4.0 mi South 4.6 mph - N/A   Overcast
9:35 AM 57.2 °F 55.4 °F 94% 29.52 in 5.0 mi SSW 4.6 mph - N/A   Overcast
9:55 AM 57.2 °F 55.4 °F 94% 29.52 in 7.0 mi South 3.5 mph - N/A   Overcast
10:15 AM 57.2 °F 55.4 °F 94% 29.52 in 7.0 mi SSW 8.1 mph - N/A   Overcast
10:55 AM 59.0 °F 57.2 °F 94% 29.53 in 7.0 mi SSW 6.9 mph - N/A   Overcast
11:15 AM 59.0 °F 55.4 °F 88% 29.54 in 10.0 mi SSW 9.2 mph 20.7 mph N/A   Overcast
11:35 AM 59.0 °F 55.4 °F 88% 29.54 in 10.0 mi SSW 8.1 mph - N/A   Overcast
11:55 AM 59.0 °F 55.4 °F 88% 29.54 in 10.0 mi SW 5.8 mph - N/A   Overcast
12:15 PM 60.8 °F 57.2 °F 88% 29.54 in 10.0 mi SSW 6.9 mph - N/A   Mostly Cloudy
12:35 PM 60.8 °F 55.4 °F 82% 29.55 in 10.0 mi SSW 8.1 mph - N/A   Mostly Cloudy
12:55 PM 62.6 °F 57.2 °F 82% 29.54 in 10.0 mi SSW 8.1 mph - N/A   Mostly Cloudy
1:15 PM 62.6 °F 55.4 °F 77% 29.53 in 10.0 mi South 8.1 mph - N/A   Mostly Cloudy
1:35 PM 62.6 °F 55.4 °F 77% 29.53 in 10.0 mi South 5.8 mph - N/A   Overcast
1:55 PM 60.8 °F 55.4 °F 82% 29.52 in 10.0 mi SSW 8.1 mph - N/A   Overcast
2:15 PM 60.8 °F 55.4 °F 82% 29.52 in 10.0 mi South 6.9 mph - N/A   Overcast
2:35 PM 62.6 °F 55.4 °F 77% 29.52 in 10.0 mi South 6.9 mph - N/A   Overcast
2:55 PM 62.6 °F 55.4 °F 77% 29.51 in 10.0 mi South 8.1 mph - N/A   Overcast
3:15 PM 62.6 °F 55.4 °F 77% 29.51 in 10.0 mi SSW 8.1 mph - N/A   Overcast
3:35 PM 62.6 °F 55.4 °F 77% 29.51 in 10.0 mi South 5.8 mph - N/A   Overcast
3:55 PM 62.6 °F 57.2 °F 82% 29.50 in 10.0 mi South 5.8 mph - N/A   Overcast
4:15 PM 64.4 °F 57.2 °F 77% 29.50 in 10.0 mi SSW 9.2 mph - N/A   Overcast
4:35 PM 62.6 °F 57.2 °F 82% 29.51 in 10.0 mi SSW 6.9 mph - N/A   Mostly Cloudy
4:55 PM 62.6 °F 55.4 °F 77% 29.51 in 10.0 mi SW 6.9 mph - N/A   Mostly Cloudy
5:15 PM 62.6 °F 57.2 °F 82% 29.51 in 10.0 mi South 5.8 mph - N/A   Mostly Cloudy
5:35 PM 60.8 °F 57.2 °F 88% 29.51 in 7.0 mi SW 4.6 mph - N/A Rain Rain
6:15 PM 59.0 °F 57.2 °F 94% 29.52 in 10.0 mi West 5.8 mph - N/A   Overcast
6:35 PM 57.2 °F 55.4 °F 94% 29.52 in 5.0 mi WSW 4.6 mph - N/A   Overcast
6:55 PM 55.4 °F 55.4 °F 100% 29.52 in 2.5 mi West 4.6 mph - N/A   Overcast
7:15 PM 55.4 °F 55.4 °F 100% 29.53 in 1.5 mi Calm Calm - N/A   Overcast
7:35 PM 55.4 °F 55.4 °F 100% 29.53 in 2.5 mi Calm Calm - N/A   Overcast
7:55 PM 55.4 °F 55.4 °F 100% 29.54 in 3.0 mi Calm Calm - N/A   Overcast
8:15 PM 55.4 °F 55.4 °F 100% 29.54 in 3.0 mi Calm Calm - N/A   Overcast
8:35 PM 55.4 °F 55.4 °F 100% 29.54 in 3.0 mi Calm Calm - N/A   Mostly Cloudy
8:55 PM 53.6 °F 53.6 °F 100% 29.53 in 2.0 mi Calm Calm - N/A   Clear
9:15 PM 53.6 °F 53.6 °F 100% 29.53 in 1.5 mi Calm Calm - N/A   Mist
9:35 PM 53.6 °F 53.6 °F 100% 29.53 in 1.5 mi Calm Calm - N/A   Mist
9:55 PM 53.6 °F 53.6 °F 100% 29.54 in 1.5 mi SSE 3.5 mph - N/A   Mist
10:15 PM 53.6 °F 53.6 °F 100% 29.54 in 2.0 mi Calm Calm - N/A   Clear
10:35 PM 53.6 °F 53.6 °F 100% 29.54 in 2.0 mi Calm Calm - N/A   Scattered Clouds
10:55 PM 53.6 °F 51.8 °F 94% 29.54 in 3.0 mi Calm Calm - N/A   Scattered Clouds
11:15 PM 53.6 °F 53.6 °F 100% 29.53 in 3.0 mi East 4.6 mph - N/A   Clear
11:35 PM 55.4 °F 53.6 °F 94% 29.52 in 5.0 mi East 4.6 mph - N/A   Scattered Clouds
11:55 PM 55.4 °F 53.6 °F 94% 29.49 in 7.0 mi East 6.9 mph - N/A   Scattered Clouds